This demonstration page uses our WeatherBlox Daily Observations layout. Learn more.

Left ArrowRight Arrow

Hourly Observations for July 10, 2021

Temp ( °F °C ) Dew Point ( °F °C ) Humidity (%) Winds ( mph kmh ) Pressure ( in mb ) Visibility ( mi km ) Precip ( " mm )
6:30 am 06:30 Cloudy 63 17 59 15 88 88 Calm 29.99 1016 10 16 N/A
6:45 am 06:45 Cloudy 64 18 59 15 83 83 ESE 6 9 30.00 1016 10 16 N/A
7:35 am 07:35 Cloudy with Light Rain 63 17 61 16 94 94 E 6 9 30.02 1017 4 6 N/A
7:45 am 07:45 Cloudy with Light Rain 63 17 61 16 94 94 ENE 7 11 30.01 1016 3 5 N/A
7:52 am 07:52 Cloudy with Light Rain 63 17 61 16 94 94 ENE 7 11 30.01 1016 5 8 N/A
8:05 am 08:05 Cloudy with Light Rain 63 17 61 16 94 94 ENE 7 11 30.01 1016 7 11 N/A
8:45 am 08:45 Cloudy with Light Rain 64 18 61 16 88 88 E 9 15 30.01 1016 10 16 N/A
9:45 am 09:45 Cloudy with Light Rain 64 18 63 17 94 94 ENE 6 9 29.99 1016 5 8 N/A
10:10 am 10:10 Cloudy with Rain 64 18 63 17 94 94 NNE 9 15 29.99 1016 1 2 N/A
10:20 am 10:20 Cloudy with Light Rain 64 18 63 17 94 94 E 7 11 30.01 1016 3 5 N/A
10:45 am 10:45 Cloudy with Rain 64 18 63 17 94 94 ESE 5 7 30.00 1016 1 1 N/A
11:30 am 11:30 Cloudy with Light Rain 64 18 63 17 94 94 ESE 3 6 30.01 1016 3 5 N/A
11:45 am 11:45 Cloudy with Rain 64 18 63 17 94 94 Calm 30.01 1016 1 2 N/A
12:31 pm 12:31 Cloudy with Light Rain 66 19 64 18 94 94 Calm 30.00 1016 4 6 N/A
12:45 pm 12:45 Cloudy with Light Rain 66 19 64 18 94 94 Calm 29.97 1015 6 10 N/A
1:45 pm 13:45 Mostly Cloudy with Mist and Fog 70 21 66 19 88 88 Calm 29.97 1015 6 10 N/A
2:45 pm 14:45 Mostly Cloudy 73 23 66 19 78 78 SE 5 7 29.95 1014 8 13 N/A
3:45 pm 15:45 Cloudy 73 23 66 19 78 78 S 5 7 29.94 1014 10 16 N/A
4:49 pm 16:49 Mostly Cloudy 75 24 66 19 74 74 SW 9 15 29.93 1013 10 16 N/A
5:55 pm 17:55 Cloudy 73 23 68 20 83 83 Calm 29.92 1013 10 16 N/A
6:45 pm 18:45 Partly Cloudy 72 22 68 20 88 88 NE 7 11 29.89 1012 10 16 N/A
7:45 pm 19:45 Mostly Cloudy 72 22 68 20 88 88 E 5 7 29.89 1012 10 16 N/A
8:50 pm 20:50 Cloudy 72 22 68 20 88 88 E 6 9 29.89 1012 10 16 N/A
9:45 pm 21:45 Cloudy 72 22 68 20 88 88 Calm 29.89 1012 10 16 N/A

Powered by AerisWeather